This is the latest recevied weather packets stored in our database for station/object F8BMG-Wx. If no packets are shown the sender has not sent any weather packets the latest 10 day(s).
| Time | Temp. | Humidity | Pressure | Rain* | Wind** | Luminosity | Snow |
|---|---|---|---|---|---|---|---|
| 1777366178 | 16.67° C | 99% | 1014.9 hPa | 0 mm | - | - | - |
| 1777365875 | 17.22° C | 99% | 1015 hPa | 0 mm | - | - | - |
| 1777365577 | 17.22° C | 99% | 1015.1 hPa | 0 mm | - | - | - |
| 1777365265 | 17.22° C | 99% | 1015.1 hPa | 0 mm | - | - | - |
| 1777364961 | 17.78° C | 99% | 1015.2 hPa | 0 mm | - | - | - |
| 1777364657 | 18.33° C | 99% | 1015.3 hPa | 0 mm | - | - | - |
| 1777364354 | 18.89° C | 99% | 1015.3 hPa | 0 mm | - | - | - |
| 1777364050 | 18.89° C | 99% | 1015.3 hPa | 0 mm | - | - | - |
| 1777363753 | 18.33° C | 99% | 1015.4 hPa | 0 mm | - | - | - |
| 1777363441 | 18.89° C | 99% | 1015.3 hPa | 0 mm | - | - | - |
| 1777363137 | 19.44° C | 99% | 1015.3 hPa | 0 mm | - | - | - |
| 1777362834 | 19.44° C | 99% | 1015.3 hPa | 0 mm | - | - | - |
| 1777362530 | 19.44° C | 99% | 1015.2 hPa | 0 mm | - | - | - |
| 1777362227 | 19.44° C | 99% | 1015.3 hPa | 0 mm | - | - | - |
| 1777361929 | 19.44° C | 99% | 1015.1 hPa | 0 mm | - | - | - |
| 1777361616 | 20° C | 99% | 1015.1 hPa | 0 mm | - | - | - |
| 1777361313 | 20° C | 99% | 1015 hPa | 0 mm | - | - | - |
| 1777361009 | 18.89° C | 99% | 1015 hPa | 0 mm | - | - | - |
| 1777360706 | 17.78° C | 99% | 1015 hPa | 0 mm | - | - | - |
| 1777360402 | 17.22° C | 99% | 1015.1 hPa | 0 mm | - | - | - |
| 1777360104 | 17.22° C | 99% | 1015.1 hPa | 0 mm | - | - | - |
| 1777359793 | 17.22° C | 99% | 1015.1 hPa | 0 mm | - | - | - |
| 1777359489 | 16.67° C | 99% | 1015 hPa | 0 mm | - | - | - |
| 1777359185 | 16.67° C | 99% | 1015 hPa | 0 mm | - | - | - |
| 1777358882 | 16.11° C | 99% | 1015 hPa | 0 mm | - | - | - |
* Rain latest hour (hover to see other rain measurements)
** Current wind speed in m/s (hover to see current wind gust speed)